Fairbanks Eiels, AK

7:03 PM AKST on February 20, 2018 (GMT -0900)
Eielson Air Force Base

Weather History for PAEI - March, 2013

Change the Weather History Date:

Tuesday, March 26, 2013

  Actual Average Record
Temperature  
Mean Temperature -8 °F -  
Max Temperature 4 °F 29 °F 49 °F (1970)
Min Temperature -20 °F 6 °F -27 °F (2007)
Degree Days  
Heating Degree Days 74    
Moisture  
Dew Point -11 °F    
Average Humidity 65    
Maximum Humidity 79    
Minimum Humidity 44    
Precipitation  
Precipitation 0.00 in - - ()
Sea Level Pressure  
Sea Level Pressure 30.05 in    
Wind  
Wind Speed 7 mph (WSW)    
Max Wind Speed 13 mph    
Max Gust Speed 18 mph    
Visibility 8 miles    
Events Snow    
Averages and records for this station are not official NWS values.
T = Trace of Precipitation, MM = Missing Value Source: NWS Daily Summary

Daily Weather History Graph

Daily Weather History Graph

Search for Another Location

Airport or City:

Trip Planner

Search our weather history database for the weather conditions in past years. The results will help you decide how hot, cold, wet, or windy it might be!

Date:

Astronomy

Mar. 26, 2013 Rise Set
Actual Time 7:25 AM AKDT 8:24 PM AKDT
Civil Twilight 6:35 AM AKDT 9:13 PM AKDT
Nautical Twilight 5:33 AM AKDT 10:17 PM AKDT
Astronomical Twilight 4:17 AM AKDT 11:35 PM AKDT
Moon 8:21 PM AKDT (3/26) 6:50 AM AKDT (3/26)
Length of Visible Light 14h 38m
Length of Day
12h 58m
Full, 100% of the Moon is Illuminated
Mar 26
Full
Mar 27
Full
Apr 2
Last Quarter
Apr 10
New
Apr 18
First Quarter

Hourly Weather History & Observations

Time (AKDT) Temp. Windchill Dew Point Humidity Pressure Visibility Wind Dir Wind Speed Gust Speed Precip Events Conditions
12:55 AM 1.2 °F -13.7 °F -6.2 °F 71% 29.86 in 10.0 mi West 9.2 mph - N/A   Overcast
1:55 AM 0.3 °F -13.8 °F -7.6 °F 69% 29.88 in 10.0 mi WSW 8.1 mph - N/A   Overcast
2:55 AM -0.2 °F -14.4 °F -8.1 °F 69% 29.90 in 10.0 mi West 8.1 mph - N/A   Overcast
3:49 AM -0.4 °F -13.4 °F -7.6 °F 72% 29.93 in 3.0 mi Variable 6.9 mph - N/A Snow Light Snow
3:55 AM -0.2 °F -16.5 °F -7.4 °F 72% 29.93 in 3.0 mi West 10.4 mph - 0.00 in Snow Light Snow
4:00 AM -0.4 °F -17.6 °F -7.6 °F 72% 29.93 in 1.0 mi West 11.5 mph - N/A Snow Light Snow
4:21 AM -0.4 °F -12.0 °F -5.8 °F 78% 29.94 in 1.0 mi West 5.8 mph - N/A Snow Light Snow
4:35 AM -0.4 °F -12.0 °F -5.8 °F 78% 29.94 in 3.0 mi Variable 5.8 mph - N/A Snow Light Snow
4:55 AM -0.8 °F -12.5 °F -6.5 °F 77% 29.94 in 4.0 mi Variable 5.8 mph - 0.00 in Snow Light Snow
5:04 AM -0.4 °F -10.4 °F -5.8 °F 78% 29.94 in 5.0 mi Variable 4.6 mph - N/A Snow Light Snow
5:19 AM -0.4 °F -16.7 °F -7.6 °F 72% 29.95 in 6.0 mi West 10.4 mph 17.3 mph N/A Snow Light Snow
5:55 AM -1.1 °F -17.6 °F -9.4 °F 68% 29.97 in 10.0 mi West 10.4 mph 18.4 mph 0.00 in   Partly Cloudy
6:55 AM -2.0 °F -16.6 °F -9.6 °F 70% 30.00 in 10.0 mi WSW 8.1 mph - 0.00 in   Mostly Cloudy
7:55 AM -3.6 °F -15.9 °F -10.8 °F 71% 30.02 in 10.0 mi WSW 5.8 mph - N/A   Mostly Cloudy
8:55 AM -3.5 °F -13.9 °F -11.2 °F 69% 30.04 in 10.0 mi West 4.6 mph - 0.00 in   Mostly Cloudy
9:55 AM -2.4 °F -14.4 °F -11.4 °F 66% 30.06 in 10.0 mi Variable 5.8 mph - N/A   Scattered Clouds
10:55 AM -1.3 °F -15.7 °F -11.6 °F 62% 30.09 in 10.0 mi West 8.1 mph - N/A   Scattered Clouds
11:55 AM -0.2 °F -15.5 °F -11.2 °F 60% 30.10 in 10.0 mi WSW 9.2 mph - 0.00 in   Mostly Cloudy
12:55 PM 1.0 °F -12.9 °F -11.4 °F 56% 30.12 in 10.0 mi WSW 8.1 mph - N/A   Mostly Cloudy
1:30 PM 1.4 °F -16.1 °F -11.2 °F 56% 30.12 in 10.0 mi West 12.7 mph - N/A   Scattered Clouds
1:55 PM 1.9 °F -11.8 °F -12.5 °F 51% 30.13 in 10.0 mi SW 8.1 mph - N/A   Scattered Clouds
2:55 PM 2.1 °F -10.4 °F -13.0 °F 49% 30.14 in 10.0 mi Variable 6.9 mph - N/A   Scattered Clouds
3:55 PM 3.0 °F - -13.5 °F 46% 30.15 in 10.0 mi Calm Calm - 0.00 in   Partly Cloudy
4:55 PM 3.7 °F -7.1 °F -13.7 °F 44% 30.15 in 10.0 mi Variable 5.8 mph - N/A   Partly Cloudy
5:55 PM 3.9 °F -3.4 °F -13.5 °F 44% 30.16 in 10.0 mi Variable 3.5 mph - N/A   Clear
6:55 PM 2.8 °F -6.6 °F -13.9 °F 46% 30.17 in 10.0 mi NW 4.6 mph - N/A   Clear
7:55 PM 1.0 °F - -13.5 °F 51% 30.18 in 10.0 mi Calm Calm - N/A   Clear
8:55 PM -11.0 °F - -17.0 °F 75% 30.22 in 10.0 mi Calm Calm - N/A   Clear
9:55 PM -16.6 °F - -21.5 °F 79% 30.23 in 10.0 mi Calm Calm - N/A   Clear
10:55 PM -20.6 °F -36.0 °F -26.5 °F 74% 30.25 in 10.0 mi SSE 5.8 mph - N/A   Clear
11:55 PM -18.2 °F -34.9 °F -23.8 °F 76% 30.26 in 10.0 mi SSE 6.9 mph - N/A   Clear